[[{"header":{"parameterUnit":"m.s-1","parameterCategory":1,"la1":30.2991,"la2":30.254,"lo1":-89.0895,"lo2":-89.0444,"dy":0.0017,"dx":0.0017,"nx":28,"ny":28,"refTime":"2025-09-06T09:00:00:Z","depth":0,"parameterNumber":2,"parameterNumberName":"U-component_of_WINDS"},"data":[0,0,0,0,0,0,0,0,0,0,0,0,0,0,0,0,0,0,0,0,0,0,0,0,0,0,0,0,0,0,0,0,0,0,0,0,0,0,0,0,0,0,0,0,0,0,0,0,0,0,0,0,0,0,0,0,0,0,-1.039,-1.039,0,-1.043,-1.0431,-1.0431,-1.0481,-1.0482,-1.0483,-1.0483,-1.0521,-1.0522,-1.0522,0,0,0,0,0,0,0,0,0,0,0,0,0,-1.0351,-1.0351,-1.039,-1.039,-1.0391,-1.043,-1.0431,-1.0431,-1.0481,-1.0482,-1.0483,-1.0484,-1.0521,-1.0522,-1.0522,0,0,0,0,0,0,0,0,0,0,0,0,0,-1.0377,-1.0351,-1.039,-1.042,-1.0423,-1.043,-1.0431,-1.0431,-1.0481,-1.0482,-1.0483,-1.0484,-1.0521,-1.0522,-1.0522,-1.0501,0,0,-1.0523,-1.0524,0,0,0,0,0,0,0,0,-1.0375,-1.0378,-1.0415,-1.0418,-1.0422,-1.0452,-1.0431,-1.0455,-1.048,-1.0459,-1.0483,-1.0485,-1.0497,-1.05,-1.0505,-1.0503,-1.0504,-1.0523,-1.0524,-1.0524,-1.0524,0,0,0,0,0,0,0,-1.0373,-1.0377,-1.0406,-1.0416,-1.042,-1.043,-1.0436,-1.0436,-1.0471,-1.0461,-1.0464,-1.0469,-1.0499,-1.0504,-1.0506,-1.0505,-1.0523,-1.0524,-1.0524,-1.0524,-1.0485,-1.0484,0,0,0,0,0,0,-1.0368,-1.0375,-1.0404,-1.0407,-1.0401,-1.043,-1.0436,-1.0441,-1.0471,-1.0477,-1.0468,-1.0471,-1.0503,-1.0505,-1.0507,-1.0483,-1.0524,-1.0524,-1.0524,-1.0487,-1.0485,-1.0484,0,0,0,0,0,0,-1.0367,-1.037,-1.0403,-1.0392,-1.0397,-1.043,-1.0435,-1.0441,-1.0446,-1.0476,-1.0482,-1.0467,-1.0504,-1.0507,-1.0502,-1.0485,-1.0524,-1.0525,-1.0488,-1.0486,-1.0484,-1.0434,0,0,0,0,0,0,-1.0365,-1.0369,-1.0363,-1.0391,-1.0397,-1.0398,-1.0434,-1.0441,-1.0447,-1.0452,-1.0477,-1.0482,-1.0505,-1.0501,-1.0502,-1.0486,-1.0525,-1.049,-1.0487,-1.0485,-1.0438,-1.0431,-1.0425,0,0,0,0,0,-1.0364,-1.0347,-1.0362,-1.0365,-1.039,-1.0397,-1.04,-1.0428,-1.0446,-1.0438,-1.0457,-1.0481,-1.0487,-1.05,-1.0502,-1.0486,-1.0491,-1.0488,-1.0485,-1.044,-1.0432,-1.0425,0,0,0,0,0,0,-1.0314,-1.0351,-1.0368,-1.0361,-1.0375,-1.0405,-1.0397,-1.0419,-1.0428,-1.0431,-1.0464,-1.047,-1.046,-1.0473,-1.0487,-1.0466,-1.0492,-1.0489,-1.0458,-1.045,-1.0444,-1.044,-1.0526,0,0,0,0,0,-1.0303,-1.0306,-1.0338,-1.0328,-1.0334,-1.0364,-1.0368,-1.0388,-1.0404,-1.041,-1.0429,-1.0443,-1.0447,-1.045,-1.0456,-1.044,-1.0445,-1.043,-1.0423,-1.0418,-1.0415,-1.0405,-1.0398,-1.0474,-1.0474,-1.0474,0,0,-1.0278,-1.0299,-1.0299,-1.0318,-1.0332,-1.0333,-1.0369,-1.0369,-1.037,-1.041,-1.0406,-1.042,-1.0438,-1.0427,-1.0423,-1.0437,-1.0395,-1.0415,-1.041,-1.041,-1.0401,-1.0394,-1.0388,-1.0472,-1.0473,-1.0473,0,0,-1.0234,-1.0251,-1.0244,-1.0256,-1.0277,-1.0297,-1.0294,-1.0321,-1.0332,-1.0329,-1.0358,-1.0359,-1.0367,-1.0377,-1.0384,-1.0342,-1.0363,-1.0343,-1.031,-1.03,-1.0294,-1.0289,-1.0271,-1.0265,-1.034,-1.034,-1.034,0,-1.0201,-1.0205,-1.0237,-1.0235,-1.0241,-1.0278,-1.0269,-1.028,-1.0301,-1.0304,-1.032,-1.0329,-1.0343,-1.0334,-1.0324,-1.0328,-1.0325,-1.034,-1.0293,-1.0288,-1.0283,-1.0267,-1.0261,-1.0337,-1.0337,-1.0338,-1.0338,0,-1.0162,-1.0165,-1.0156,-1.0175,-1.0181,-1.0176,-1.0205,-1.0206,-1.0225,-1.0243,-1.0238,-1.0256,-1.0266,-1.0266,-1.0284,-1.0258,-1.0266,-1.0287,-1.0314,-1.0273,-1.0258,-1.0252,-1.0333,-1.0334,-1.0335,-1.0336,0,0,-1.0089,-1.0125,-1.0121,-1.0129,-1.0153,-1.0155,-1.015,-1.016,-1.016,-1.0173,-1.0168,-1.0174,-1.0192,-1.0199,-1.022,-1.0211,-1.0174,-1.0233,-1.0233,-1.0219,-1.0143,-1.0126,-1.0119,-1.0189,-1.0188,-1.0187,-1.0141,0,-1.0048,-1.0043,-1.007,-1.0057,-1.0058,-1.0092,-1.0088,-1.0101,-1.0117,-1.012,-1.0137,-1.0139,-1.0165,-1.0169,-1.0162,-1.018,-1.0159,-1.0184,-1.0182,-1.0182,-1.0175,-1.0112,-1.0094,-1.005,-1.0136,-1.0135,-1.0134,0,-0.9999,-1.0009,-0.9997,-1.002,-1.0021,-1.0017,-1.0027,-1.003,-1.0045,-1.0057,-1.0064,-1.0087,-1.0082,-1.0109,-1.0101,-1.0118,-1.0119,-1.0127,-1.0126,-1.0125,-1.0154,-1.0107,-1.0037,-1.0029,-1.0126,-1.0127,-1.0127,0,-0.9944,-0.9954,-0.9948,-0.9954,-0.9982,-0.9977,-0.9988,-1.0005,-1.0008,-1.0017,-1.0019,-1.0027,-1.003,-1.0035,-1.0058,-1.0076,-1.0047,-1.0077,-1.0055,-1.0054,-1.0046,-1.0046,-0.9973,-1.005,-1.005,-1.005,-1.005,0,-0.9894,-0.9885,-0.9923,-0.9918,-0.9908,-0.9938,-0.9927,-0.9941,-0.9955,-0.9952,-0.9983,-0.998,-1.0012,-1.0012,-1.003,-1.002,-1.0022,-1.003,-1.0034,-1.0026,-1.0025,-1.0026,-1.0029,-1.0049,-1.0049,-1.0049,-1.005,0,-0.983,-0.9856,-0.985,-0.9877,-0.9883,-0.9874,-0.9895,-0.9891,-0.9909,-0.9905,-0.9906,-0.9933,-0.9934,-0.9959,-0.9965,-0.9978,-0.9958,-0.997,-0.9953,-0.9956,-0.9932,-0.9933,-0.9856,-0.9846,-0.9931,-0.993,-0.993,0,-0.9796,-0.979,-0.9815,-0.9816,-0.9825,-0.9827,-0.983,-0.9859,-0.9862,-0.9877,-0.9871,-0.9874,-0.9879,-0.9879,-0.9898,-0.9902,-0.9913,-0.9885,-0.9913,-0.9904,-0.9909,-0.9909,-0.9907,-0.9879,-0.9878,-0.9877,-0.9876,0,-0.9732,-0.9745,-0.9749,-0.9757,-0.9761,-0.9769,-0.9778,-0.9777,-0.9809,-0.9809,-0.9811,-0.9815,-0.9821,-0.9823,-0.9831,-0.9841,-0.9862,-0.9867,-0.9862,-0.9852,-0.9842,-0.9845,-0.9935,-0.9868,-0.9869,-0.987,-0.987,-0.987,-0.9681,-0.9675,-0.9692,-0.9695,-0.9705,-0.9713,-0.971,-0.9727,-0.9729,-0.9737,-0.9754,-0.9752,-0.9765,-0.9778,-0.9786,-0.9784,-0.9797,-0.979,-0.9788,-0.9786,-0.978,-0.9844,-0.9785,-0.9786,-0.9786,-0.9786,-0.9786,0,-0.9616,-0.9628,-0.9631,-0.9643,-0.9645,-0.9667,-0.9678,-0.9678,-0.9676,-0.9687,-0.9691,-0.9691,-0.9693,-0.9713,-0.9716,-0.9711,-0.9721,-0.9711,-0.971,-0.9712,-0.9769,-0.9772,-0.9702,-0.9702,-0.9702,-0.9702,-0.9702,-0.9702,-0.9583,-0.9574,-0.9588,-0.9584,-0.9596,-0.9595,-0.9599,-0.9605,-0.9614,-0.9614,-0.9616,-0.9628,-0.9642,-0.9647,-0.9649,-0.9654,-0.9653,-0.9639,-0.9647,-0.97,-0.9708,-0.9716,-0.9718,-0.9639,-0.9639,-0.959,-0.959,-0.9589]},{"header":{"parameterUnit":"m.s-1","parameterCategory":1,"la1":30.2991,"la2":30.254,"lo1":-89.0895,"lo2":-89.0444,"dy":0.0017,"dx":0.0017,"nx":28,"ny":28,"refTime":"2025-09-06T09:00:00:Z","depth":0,"parameterNumber":3,"parameterNumberName":"V-component_of_WINDS"},"data":[0,0,0,0,0,0,0,0,0,0,0,0,0,0,0,0,0,0,0,0,0,0,0,0,0,0,0,0,0,0,0,0,0,0,0,0,0,0,0,0,0,0,0,0,0,0,0,0,0,0,0,0,0,0,0,0,0,0,-3.6449,-3.6451,0,-3.6625,-3.6627,-3.6629,-3.6652,-3.665,-3.6649,-3.6647,-3.6826,-3.6832,-3.6838,0,0,0,0,0,0,0,0,0,0,0,0,0,-3.6131,-3.6136,-3.6449,-3.6451,-3.6453,-3.6625,-3.6627,-3.663,-3.6652,-3.665,-3.6648,-3.6646,-3.6824,-3.6831,-3.6839,0,0,0,0,0,0,0,0,0,0,0,0,0,-3.6284,-3.6138,-3.6449,-3.6485,-3.6491,-3.6624,-3.6627,-3.663,-3.6653,-3.665,-3.6648,-3.6646,-3.6821,-3.683,-3.684,-3.6948,0,0,-3.6869,-3.6873,0,0,0,0,0,0,0,0,-3.6275,-3.6296,-3.6478,-3.6483,-3.6489,-3.6614,-3.658,-3.6737,-3.6654,-3.6591,-3.6647,-3.6644,-3.6757,-3.6772,-3.681,-3.6957,-3.6964,-3.687,-3.6875,-3.6879,-3.6882,0,0,0,0,0,0,0,-3.6264,-3.6288,-3.6519,-3.648,-3.6487,-3.6493,-3.6512,-3.661,-3.6686,-3.6596,-3.6599,-3.6619,-3.676,-3.6801,-3.6815,-3.6967,-3.6869,-3.6878,-3.6884,-3.6887,-3.7211,-3.7214,0,0,0,0,0,0,-3.6247,-3.6279,-3.6513,-3.6524,-3.6374,-3.65,-3.6522,-3.6576,-3.6685,-3.6699,-3.6621,-3.662,-3.6786,-3.6804,-3.6821,-3.6955,-3.6879,-3.6888,-3.6894,-3.7208,-3.7212,-3.7215,0,0,0,0,0,0,-3.624,-3.6268,-3.6506,-3.6402,-3.6433,-3.6509,-3.657,-3.6581,-3.6623,-3.6704,-3.6717,-3.665,-3.6785,-3.6808,-3.6917,-3.6962,-3.6892,-3.6901,-3.7205,-3.7209,-3.7213,-3.7224,0,0,0,0,0,0,-3.6231,-3.6265,-3.6308,-3.6403,-3.6438,-3.6599,-3.6573,-3.6587,-3.6639,-3.6639,-3.6734,-3.6747,-3.6785,-3.6902,-3.6926,-3.6974,-3.6908,-3.7201,-3.7207,-3.7212,-3.722,-3.7229,-3.7236,0,0,0,0,0,-3.622,-3.6304,-3.631,-3.6338,-3.6493,-3.6602,-3.6622,-3.6664,-3.6643,-3.6686,-3.6738,-3.6744,-3.6953,-3.6913,-3.694,-3.6991,-3.7198,-3.7205,-3.7211,-3.7217,-3.7227,-3.7236,0,0,0,0,0,0,-3.6212,-3.6317,-3.6325,-3.6443,-3.6513,-3.6605,-3.6661,-3.6673,-3.6751,-3.6747,-3.6795,-3.6816,-3.6923,-3.6968,-3.6922,-3.7102,-3.7074,-3.7086,-3.7069,-3.7079,-3.7086,-3.7073,-3.6916,0,0,0,0,0,-3.6224,-3.6304,-3.6391,-3.6486,-3.6521,-3.6585,-3.6634,-3.666,-3.6735,-3.6765,-3.6825,-3.6896,-3.6978,-3.7031,-3.7111,-3.7227,-3.7248,-3.7275,-3.7283,-3.7289,-3.7299,-3.7363,-3.7376,-3.7236,-3.7236,-3.7236,0,0,-3.6249,-3.6317,-3.6364,-3.6486,-3.6544,-3.6625,-3.661,-3.6697,-3.6757,-3.6778,-3.6884,-3.6931,-3.7014,-3.7127,-3.7179,-3.7167,-3.7342,-3.7297,-3.7301,-3.7308,-3.7371,-3.7384,-3.7396,-3.7241,-3.724,-3.7239,0,0,-3.6337,-3.6396,-3.6482,-3.654,-3.6628,-3.667,-3.669,-3.6781,-3.6813,-3.6921,-3.6938,-3.701,-3.715,-3.7208,-3.7256,-3.7365,-3.7374,-3.739,-3.743,-3.7492,-3.7503,-3.7513,-3.7552,-3.7566,-3.74,-3.74,-3.74,0,-3.6358,-3.6482,-3.6525,-3.6611,-3.6664,-3.6686,-3.6773,-3.6827,-3.6936,-3.6972,-3.6957,-3.7133,-3.719,-3.7317,-3.7344,-3.7382,-3.7406,-3.738,-3.7498,-3.7509,-3.7519,-3.7556,-3.7571,-3.7401,-3.7401,-3.7401,-3.7401,0,-3.6502,-3.6588,-3.6646,-3.6751,-3.6811,-3.6897,-3.6952,-3.7007,-3.7028,-3.7071,-3.718,-3.725,-3.7344,-3.7376,-3.7396,-3.7505,-3.7495,-3.7489,-3.7461,-3.7533,-3.7569,-3.7584,-3.7403,-3.7402,-3.7402,-3.7402,0,0,-3.6591,-3.6718,-3.6739,-3.6787,-3.6885,-3.6952,-3.7038,-3.7131,-3.7177,-3.7251,-3.7324,-3.7442,-3.7436,-3.7491,-3.7518,-3.7573,-3.7654,-3.756,-3.7562,-3.7575,-3.7778,-3.7782,-3.7798,-3.7661,-3.7664,-3.7666,-3.7771,0,-3.669,-3.6846,-3.6887,-3.7019,-3.7098,-3.712,-3.7195,-3.7263,-3.7306,-3.7378,-3.7424,-3.7507,-3.7494,-3.7527,-3.7582,-3.7633,-3.7696,-3.7626,-3.7729,-3.7732,-3.7708,-3.7817,-3.7822,-3.7918,-3.7785,-3.7788,-3.779,0,-3.6827,-3.6905,-3.7045,-3.7132,-3.7167,-3.7234,-3.7322,-3.7391,-3.7468,-3.7495,-3.7555,-3.7578,-3.7668,-3.7635,-3.776,-3.7711,-3.7755,-3.7787,-3.7791,-3.7803,-3.7765,-3.7832,-3.795,-3.7964,-3.7812,-3.7811,-3.7809,0,-3.6878,-3.7017,-3.7118,-3.7159,-3.7263,-3.731,-3.7355,-3.743,-3.7483,-3.7559,-3.7594,-3.7679,-3.7726,-3.7791,-3.7836,-3.7808,-3.7956,-3.7928,-3.7981,-3.798,-3.8011,-3.8009,-3.8139,-3.804,-3.8039,-3.8039,-3.8039,0,-3.6984,-3.7069,-3.7142,-3.7205,-3.73,-3.7346,-3.7439,-3.7485,-3.7551,-3.7623,-3.7647,-3.7713,-3.7767,-3.7841,-3.7876,-3.7973,-3.7994,-3.8018,-3.8026,-3.8016,-3.8013,-3.8046,-3.8041,-3.8043,-3.8042,-3.8041,-3.8041,0,-3.7057,-3.711,-3.7222,-3.7312,-3.7336,-3.7402,-3.7479,-3.754,-3.7583,-3.7673,-3.7696,-3.7763,-3.7851,-3.7902,-3.8012,-3.8035,-3.8144,-3.8149,-3.8118,-3.8122,-3.8172,-3.8167,-3.8328,-3.8351,-3.8236,-3.8237,-3.8238,0,-3.7122,-3.7188,-3.7285,-3.7334,-3.7381,-3.7461,-3.7515,-3.7562,-3.7617,-3.7709,-3.7759,-3.7848,-3.7922,-3.8061,-3.8119,-3.8203,-3.8211,-3.8261,-3.8224,-3.8211,-3.8212,-3.8207,-3.8214,-3.8268,-3.8269,-3.827,-3.827,0,-3.7231,-3.7254,-3.7331,-3.7418,-3.7482,-3.7552,-3.7622,-3.7661,-3.7719,-3.778,-3.787,-3.7928,-3.804,-3.8128,-3.8217,-3.8263,-3.8277,-3.8282,-3.8299,-3.8289,-3.8268,-3.828,-3.8136,-3.8278,-3.8277,-3.8277,-3.8276,-3.8276,-3.7302,-3.7362,-3.7439,-3.7524,-3.7582,-3.7646,-3.7708,-3.7758,-3.7835,-3.7931,-3.7953,-3.8048,-3.8123,-3.8244,-3.8292,-3.8366,-3.8357,-3.8382,-3.8388,-3.8393,-3.8395,-3.8256,-3.8382,-3.8382,-3.8382,-3.8382,-3.8382,0,-3.7413,-3.7464,-3.7542,-3.7639,-3.7705,-3.7712,-3.779,-3.7845,-3.7928,-3.7997,-3.8069,-3.8172,-3.8258,-3.8322,-3.8409,-3.8456,-3.8464,-3.8477,-3.8475,-3.8485,-3.8398,-3.8374,-3.8469,-3.8469,-3.8469,-3.8469,-3.8469,-3.8469,-3.7478,-3.7579,-3.7611,-3.774,-3.779,-3.7884,-3.7927,-3.7986,-3.8041,-3.8156,-3.8227,-3.8269,-3.8336,-3.8428,-3.8506,-3.8523,-3.8554,-3.8566,-3.8583,-3.8501,-3.8491,-3.8482,-3.8461,-3.8572,-3.8572,-3.8665,-3.8665,-3.8666]}]]